Weather History for Chester, CT

Change the Weather History Date:

Friday, January 25, 2013

  Actual Average (KHVN) Record (KHVN)
Temperature  
Mean Temperature 18 °F -  
Max Temperature 24 °F 33 °F 57 °F (1989)
Min Temperature 12 °F 20 °F 3 °F (2004)
Degree Days  
Heating Degree Days 47    
Moisture  
Dew Point 1 °F    
Average Humidity 49    
Maximum Humidity 86    
Minimum Humidity 24    
Precipitation  
Precipitation 0.12 in - - ()
Sea Level Pressure  
Sea Level Pressure 30.21 in    
Wind  
Wind Speed 7 mph (NW)    
Max Wind Speed 13 mph    
Max Gust Speed 20 mph    
Visibility 9 miles    
Events Snow    
Averages and records for this station are not official NWS values.
T = Trace of Precipitation, MM = Missing Value Source: NWS Daily Summary

Daily Weather History Graph

Daily Weather History Graph

Search for Another Location

Airport:

Trip Planner

Search our weather history database for the weather conditions in past years. The results will help you decide how hot, cold, wet, or windy it might be!

Date:

Astronomy

Jan. 25, 2013 Rise Set
Actual Time 7:07 AM EST 4:57 PM EST
Civil Twilight 6:37 AM EST 5:27 PM EST
Nautical Twilight 6:04 AM EST 6:01 PM EST
Astronomical Twilight 5:31 AM EST 6:33 PM EST
Moon 3:52 PM EST (1/25) 5:45 AM EST (1/25)
Length of Visible Light 10h 49m
Length of Day
9h 50m
Waxing Gibbous, 98% of the Moon is Illuminated
Jan 25
Waxing Gibbous
Jan 26
Full
Feb 3
Last Quarter
Feb 10
New
Feb 17
First Quarter

Hourly Weather History & Observations

Time (EST) Temp. Windchill Dew Point Humidity Pressure Visibility Wind Dir Wind Speed Gust Speed Precip Events Conditions
12:15 AM 15.8 °F 3.4 °F -0.4 °F 49% 30.28 in 10.0 mi NW 10.4 mph - N/A   Clear
12:35 AM 15.8 °F 5.1 °F -0.4 °F 49% 30.29 in 10.0 mi NNW 8.1 mph - N/A   Clear
12:55 AM 14.0 °F 2.9 °F -0.4 °F 53% 30.28 in 10.0 mi NW 8.1 mph - N/A   Clear
1:15 AM 14.0 °F 6.5 °F -0.4 °F 53% 30.30 in 10.0 mi NW 4.6 mph - N/A   Clear
1:35 AM 14.0 °F 3.9 °F -0.4 °F 53% 30.30 in 10.0 mi NW 6.9 mph - N/A   Clear
1:55 AM 14.0 °F -0.2 °F -0.4 °F 53% 30.30 in 10.0 mi NW 12.7 mph 17.3 mph N/A   Clear
2:15 AM 14.0 °F 5.1 °F -0.4 °F 53% 30.31 in 10.0 mi NW 5.8 mph - N/A   Clear
2:35 AM 14.0 °F 5.1 °F 1.4 °F 57% 30.32 in 10.0 mi NW 5.8 mph - N/A   Clear
2:55 AM 12.2 °F 4.3 °F 1.4 °F 62% 30.31 in 10.0 mi WNW 4.6 mph - N/A   Clear
3:15 AM 12.2 °F 4.3 °F 1.4 °F 62% 30.31 in 10.0 mi WNW 4.6 mph - N/A   Clear
3:35 AM 12.2 °F 1.7 °F 1.4 °F 62% 30.30 in 10.0 mi NW 6.9 mph - N/A   Clear
3:55 AM 12.2 °F 2.9 °F 1.4 °F 62% 30.31 in 10.0 mi NW 5.8 mph - N/A   Clear
4:15 AM 12.2 °F 0.7 °F 1.4 °F 62% 30.31 in 10.0 mi NW 8.1 mph - N/A   Clear
4:35 AM 12.2 °F 0.7 °F -0.4 °F 57% 30.31 in 10.0 mi NW 8.1 mph - N/A   Clear
4:55 AM 12.2 °F 0.7 °F 1.4 °F 62% 30.31 in 10.0 mi NW 8.1 mph - N/A   Clear
5:15 AM 12.2 °F 1.7 °F -0.4 °F 57% 30.31 in 10.0 mi NW 6.9 mph - N/A   Clear
5:35 AM 12.2 °F -0.2 °F -0.4 °F 57% 30.31 in 10.0 mi NW 9.2 mph 16.1 mph N/A   Clear
5:55 AM 12.2 °F -1.0 °F -4.0 °F 48% 30.31 in 10.0 mi NW 10.4 mph 16.1 mph N/A   Clear
6:15 AM 12.2 °F -1.0 °F -4.0 °F 48% 30.31 in 10.0 mi NW 10.4 mph - N/A   Clear
6:35 AM 12.2 °F -2.5 °F -4.0 °F 48% 30.33 in 10.0 mi NW 12.7 mph 19.6 mph N/A   Clear
6:55 AM 12.2 °F -2.5 °F -4.0 °F 48% 30.33 in 10.0 mi NW 12.7 mph 16.1 mph N/A   Clear
7:15 AM 14.0 °F 1.2 °F -4.0 °F 45% 30.33 in 10.0 mi NW 10.4 mph - N/A   Clear
7:35 AM 14.0 °F 1.2 °F -4.0 °F 45% 30.33 in 10.0 mi NW 10.4 mph - N/A   Clear
7:55 AM 14.0 °F 2.0 °F -4.0 °F 45% 30.33 in 10.0 mi NNW 9.2 mph - N/A   Clear
8:15 AM 15.8 °F 4.2 °F -4.0 °F 41% 30.32 in 10.0 mi NNW 9.2 mph - N/A   Clear
8:35 AM 15.8 °F 6.1 °F -5.8 °F 38% 30.33 in 10.0 mi NNW 6.9 mph - N/A   Clear
8:55 AM 17.6 °F 5.7 °F -5.8 °F 35% 30.33 in 10.0 mi NNW 10.4 mph 16.1 mph N/A   Clear
9:15 AM 17.6 °F 6.4 °F -5.8 °F 35% 30.33 in 10.0 mi NNW 9.2 mph - N/A   Clear
9:35 AM 17.6 °F 7.3 °F -5.8 °F 35% 30.32 in 10.0 mi NNW 8.1 mph - N/A   Clear
9:55 AM 17.6 °F 6.4 °F -5.8 °F 35% 30.33 in 10.0 mi NNW 9.2 mph - N/A   Clear
10:15 AM 19.4 °F 9.5 °F -5.8 °F 33% 30.33 in 10.0 mi West 8.1 mph - N/A   Clear
10:35 AM 19.4 °F 9.5 °F -5.8 °F 33% 30.31 in 9.0 mi NNW 8.1 mph - N/A   Clear
10:55 AM 21.2 °F 10.9 °F -5.8 °F 30% 30.31 in 10.0 mi NNW 9.2 mph - N/A   Clear
11:15 AM 21.2 °F 12.6 °F -5.8 °F 30% 30.29 in 10.0 mi NNW 6.9 mph - N/A   Clear
11:35 AM 21.2 °F 14.9 °F -7.6 °F 28% 30.27 in 10.0 mi North 4.6 mph - N/A   Clear
11:55 AM 21.2 °F 16.4 °F -5.8 °F 30% 30.25 in 10.0 mi NW 3.5 mph - N/A   Clear
12:15 PM 23.0 °F 17.0 °F -5.8 °F 28% 30.24 in 10.0 mi NW 4.6 mph - N/A   Clear
12:35 PM 23.0 °F - -5.8 °F 28% 30.22 in 10.0 mi Calm Calm - N/A   Clear
12:55 PM 23.0 °F 15.8 °F -7.6 °F 26% 30.21 in 10.0 mi NW 5.8 mph - N/A   Clear
1:15 PM 23.0 °F 13.1 °F -7.6 °F 26% 30.20 in 10.0 mi NW 9.2 mph - N/A   Clear
1:35 PM 24.8 °F 20.5 °F -7.6 °F 24% 30.21 in 10.0 mi NW 3.5 mph - N/A   Clear
1:55 PM 24.8 °F 17.9 °F -7.6 °F 24% 30.20 in 10.0 mi WNW 5.8 mph - N/A   Clear
2:15 PM 24.8 °F 17.9 °F -5.8 °F 26% 30.19 in 10.0 mi NW 5.8 mph - N/A   Clear
2:35 PM 24.8 °F 19.1 °F -5.8 °F 26% 30.19 in 10.0 mi NW 4.6 mph - N/A   Clear
2:55 PM 24.8 °F 20.5 °F -5.8 °F 26% 30.17 in 10.0 mi NW 3.5 mph - N/A   Clear
3:15 PM 23.0 °F 17.0 °F -4.0 °F 31% 30.17 in 10.0 mi WNW 4.6 mph - N/A   Clear
3:35 PM 23.0 °F 18.4 °F -4.0 °F 31% 30.16 in 10.0 mi WNW 3.5 mph - N/A   Clear
3:55 PM 23.0 °F 18.4 °F -4.0 °F 31% 30.17 in 10.0 mi WNW 3.5 mph - N/A   Partly Cloudy
4:15 PM 23.0 °F 18.4 °F -4.0 °F 31% 30.16 in 10.0 mi West 3.5 mph - N/A   Clear
4:35 PM 23.0 °F 17.0 °F -2.2 °F 33% 30.16 in 10.0 mi West 4.6 mph - N/A   Partly Cloudy
4:55 PM 23.0 °F - -0.4 °F 36% 30.15 in 10.0 mi Calm Calm - N/A   Partly Cloudy
5:15 PM 23.0 °F - -0.4 °F 36% 30.14 in 10.0 mi Calm Calm - N/A   Partly Cloudy
5:35 PM 23.0 °F 18.4 °F -0.4 °F 36% 30.14 in 10.0 mi WSW 3.5 mph - N/A   Clear
5:55 PM 23.0 °F - -0.4 °F 36% 30.13 in 10.0 mi Calm Calm - N/A   Clear
6:15 PM 23.0 °F - -0.4 °F 36% 30.12 in 10.0 mi Calm Calm - N/A   Partly Cloudy
6:35 PM 23.0 °F - -0.4 °F 36% 30.11 in 10.0 mi Calm Calm - N/A   Mostly Cloudy
6:55 PM 23.0 °F - -0.4 °F 36% 30.10 in 10.0 mi Calm Calm - N/A   Overcast
7:15 PM 23.0 °F - 1.4 °F 39% 30.09 in 10.0 mi Calm Calm - N/A Snow Light Snow
7:35 PM 21.2 °F 14.9 °F 10.4 °F 63% 30.09 in 5.0 mi NW 4.6 mph - N/A Snow Light Snow
7:55 PM 21.2 °F - 14.0 °F 74% 30.08 in 3.0 mi Calm Calm - 0.01 in Snow Light Snow
8:15 PM 21.2 °F 16.4 °F 14.0 °F 74% 30.08 in 2.5 mi NW 3.5 mph - 0.01 in Snow Light Snow
8:35 PM 21.2 °F - 17.6 °F 86% 30.07 in 3.0 mi Calm Calm - 0.04 in Snow Light Snow
8:55 PM 21.2 °F - 17.6 °F 86% 30.06 in 2.0 mi Calm Calm - 0.07 in Snow Light Snow
9:15 PM 21.2 °F - 17.6 °F 86% 30.05 in 2.5 mi Calm Calm - 0.01 in Snow Light Snow
9:35 PM 21.2 °F 16.4 °F 17.6 °F 86% 30.05 in 4.0 mi North 3.5 mph - 0.02 in Snow Light Snow
9:55 PM 21.2 °F 14.9 °F 17.6 °F 86% 30.04 in 3.0 mi North 4.6 mph - 0.04 in Snow Light Snow
10:15 PM 19.4 °F - 15.8 °F 86% 30.03 in 5.0 mi Calm Calm - N/A Snow Light Snow
10:35 PM 19.4 °F 11.5 °F 15.8 °F 86% 30.03 in 9.0 mi North 5.8 mph - N/A Snow Light Snow
10:55 PM 19.4 °F 14.3 °F 15.8 °F 86% 30.03 in 9.0 mi North 3.5 mph - N/A   Overcast
11:15 PM 19.4 °F 12.8 °F 15.8 °F 86% 30.03 in 9.0 mi North 4.6 mph - N/A   Overcast
11:35 PM 17.6 °F 10.7 °F 14.0 °F 86% 30.02 in 10.0 mi NNW 4.6 mph - N/A   Mostly Cloudy
11:55 PM 17.6 °F 10.7 °F 14.0 °F 86% 30.02 in 10.0 mi North 4.6 mph - N/A   Partly Cloudy